"Pseudo-MPEC" for P11C06o

Created 2022 Nov 27 1:22:15 UT using Find_Orb

Click here for an explanation of pseudo-MPECs

 
 Astrometry: 
     P11C06o  C2022 10 23!Dku1C*HZ21(onmT@Lx[-m:/`d#=BXahSL1]uko`M?UtsK:E#PSKF51
     P11C06o  C2022 10 23VGZp174.oOvHa`Q-U74NF/Hq#GOST/!4ZgLHOuQKDSf^*s9vbBBqF51
     P11C06o  C2022 10 28DntkCNw7UeKBksqgKveX=I=69R^[I()xNL(#q]iCZQGA(fE5=5,0F52
     P11C06o  C2022 10 28hjEkMOiUUo]Yg@Hd\,^4JY:sHF]66((=1KLgu/**^`jvb$G7ak`-F52
     P11C06o  C2022 10 28Nvw1Xov^A=YQ=O5sUs2od.2hUPpv@#$U5OJ23E)FPGOet^_,S#;eF52
     P11C06o  C2022 10 29kJpKAFkxJbS:kWLX#/XSV-sQk27D5RdW4,xZQv^m*x^;$p4NLj[EF52
     P11C06o  C2022 10 29u1gKFsiPWAstrometry2(k%O1cNJ$R@wfI#1^`e3M6YGY_w6L[j_F52
     P11C06o  C2022 10 310!^%Z7FWWI4h-6OrIVb(#uBU1n5F^NW9P;?d,?BhV,OG5Hpl0SI,F52
     P11C06o  C2022 10 31uXqim'uO@Kj9jQ22oTBU*CkR:7G:BsNefFlbufg?ZWJlCs!@O+ctF52
     P11C06o  C2022 10 317W1-$%dFx8ee81'redacted;3RH,2Z1X#*3wYaS/r=wD'wvs=;1NF52
     P11C06o  C2022 10 31BxE^l%o%\8ZY1ug@m_]D]BZ7_uHgrHq_nvTsXTflhwg/q5H/3`M/F52
     P11C06o  C2022 10 31tenIg6uB^l'Rh5!DFm2w5un$w#7]+G1Jo[k_V3CI:PkP0lNV:`S)F52
     P11C06o  C2022 10 315!a2YxJdy[hIpY.Mm,Pa6AkFh?V\Yc?Hd5wclickX_aXtO[EcCrVF52
     P11C06o* C2022 11 23Oqewcee\u!^@d#Fy%87gEr2.;^E`6d]S*#5%$+dEJAk#AJ]a)]3oF51
     P11C06o  C2022 11 23k)Sd(9Tlv-PyvV$\t#,;H/\s%t4.1H#+V@3ItY[0y2fWn`4TU]c7F51
     P11C06o  C2022 11 23ViejQvl/hereSw?sdiHDi).BotTc4h=CK[Z[$LUvr)p^W4'for%XF51
     P11C06o  C2022 11 23JbfF2:Tu(CmKHN`*R:0aj(tRQgE0yIL@o^4J4=G'BIU\-av=Hg(aF51
     P11C06o mC2022 11 24.21556404 33 50.605+19 39 24.12   ~BO5q 21.13GVNEOCPI52
     P11C06o mC2022 11 24.22974204 33 51.048+19 39 14.90   ~BO5q 20.50GVNEOCPI52
     P11C06o mC2022 11 24.23593504 33 51.289+19 39 10.66   ~BO5q 21.45GVNEOCPI52
     P11C06o mC2022 11 26.19050704 35 09.892+19 16 02.42   ~BQ5M 21.31GVNEOCPI52
     P11C06o mC2022 11 26.19535604 35 10.000+19 15 59.33   ~BQ5M 21.32GVNEOCPI52
     P11C06o mC2022 11 26.20413004 35 10.352+19 15 53.35   ~BQ5M 21.58GVNEOCPI52
     P11C06o mC2022 11 26.20884104 35 10.518+19 15 49.61   ~BQ5M 20.94GVNEOCPI52
     P11C06o KC2022 11 26RFl?EVsn\9AMBUDC6glEI,Fq.gq7N$]tw)PpQ2/I-]k'4RH[wL5]587
     P11C06o KC2022 11 26r`l9X]g\@;3#E*U1mX?PJ[28h4M?`b#2IIexplanationK[,lq-*587
     P11C06o KC2022 11 26*Rh9d\q]2urxh:3;ZsX7,[`WFJgL1q0`#(Bu?.J7a8RtTfGf#-G=587

Station data:
(587) Sormano  (N45.882946 E9.229180)  Italy.  Observers E. Colzani, E. Valli.
    Measurer P. Sicoli. 0.5-m f/6.8 reflector + CCD.
(F51) Pan-STARRS 1, Haleakala  (N20.707234 W156.255910)  US/Hawaii.
   Observers J. Bulger, T. Lowe, A. Schultz, M. Willman. Measurers K.
   Chambers, S. Chastel, T. de Boer, L. Denneau, J. Fairlamb, H. Flewelling,
   M. Huber, C.-C. Lin, E. Magnier, Y. Ramanjooloo, R. Wainscoat, R. Weryk.
   1.8-m Ritchey-Chrétien + CCD.
(F52) Pan-STARRS 2, Haleakala  (N20.707382 W156.255910)  US/Hawaii.
   Observers J. Bulger, T. Dukes, T. Lowe, A. Schultz, M. Willman. Measurers
   K. Chambers, S. Chastel, T. de Boer, L. Denneau, J. Fairlamb, H.
   Flewelling, M. Huber, C.-C. Lin, E. Magnier, Y. Ramanjooloo, R. Wainscoat,
   R. Weryk. 1.8-m Ritchey-Chrétien + CCD.
(I52) Steward Observatory, Mt. Lemmon Station  (N32.442544 W110.788920)
   US/Arizona.  Observers T. A. Pruyne, B. M. Africano, E. J. Christensen, G.
   A. Farneth, D. C. Fuls, A. R. Gibbs, A. D. Grauer, H. Gröller, J. A.
   Johnson, R. A. Kowalski, S. M. Larson, G. J. Leonard, D. Rankin, R. L.
   Seaman, F. C. Shelly, K. W. Wierzchoś. 1.0-m reflector + CCD.

Orbital elements:  P11C06o
   Perihelion 2023 Jan 1.98878 +/- 0.00739 TT = 23:43:50 (JD 2459946.48878)
Epoch 2022 Nov 26.0 TT = JDT 2459909.5   Earth MOID: 0.2831   Ma: 0.0250
M 351.08678002 +/- 0.006            (J2000 ecliptic)          AutoNEOCP
n   0.24097092 +/- 0.000138         Peri.  220.82218 +/- 0.008
a   2.55756267 +/- 0.000978         Node   234.80857 +/- 0.0007
e   0.5063548 +/- 0.000149          Incl.    3.83969 +/- 0.0009
P   4.09                   H 22.3   G  0.15   U  6.8
q 1.26252838 +/- 0.000109    Q 3.85259696 +/- 0.00185
From 27 observations 2022 Oct. 23-Nov. 26; mean residual 0".24
Residuals in arcseconds: 
221023 F51  .00   .15+    221031 F52  .07+  .19-    221124 I52  .36-  .47+    
221023 F51  .23-  .27+    221031 F52  .05-  .16-    221124 I52  .22+  .39+    
221028 F52  .00   .05-    221031 F52  .31+  .25-    221126 I52  .08-  .12-    
221028 F52  .06-  .02-    221031 F52  .03+  .31-    221126 I52  .81-  .13+    
221028 F52  .09-  .18+    221123 F51  .04+  .06+    221126 I52  .11+  .21+    
221029 F52  .17+  .10+    221123 F51  .06+  .02+    221126 I52  .30+  .27-    
221029 F52  .31+  .25-    221123 F51  .01-  .06-    221126 587  .35+  .14-    
221031 F52  .30-  .06-    221123 F51  .18-  .12+    221126 587  .43+  .30-    
221031 F52  .06+  .07-    221124 I52  .08-  .19+    221126 587  .19-  .37-    

Ephemerides (geocentric):
Date (UTC) HH   RA             Dec           delta  r     elong  mag " sig PA
---- --------  ------------   ------------  ------ ------ -----  --- --------
2022 11 27 01  04 35 42.637   +19 05 52.60  .33563 1.3210 173.6 20.9 .082  28
2022 11 27 02  04 35 44.292   +19 05 22.15  .33549 1.3209 173.7 20.9 .084  28
2022 11 27 03  04 35 45.948   +19 04 51.67  .33536 1.3207 173.7 20.9 .086  27
2022 11 27 04  04 35 47.603   +19 04 21.18  .33522 1.3206 173.7 20.9 .088  27
2022 11 27 05  04 35 49.258   +19 03 50.66  .33508 1.3205 173.7 20.9 .089  27
2022 11 27 06  04 35 50.913   +19 03 20.13  .33495 1.3203 173.8 20.9 .091  27
2022 11 27 07  04 35 52.568   +19 02 49.59  .33481 1.3202 173.8 20.9 .093  27
2022 11 27 08  04 35 54.223   +19 02 19.02  .33468 1.3201 173.8 20.9 .095  27
2022 11 27 09  04 35 55.878   +19 01 48.43  .33454 1.3199 173.9 20.9 .097  27
2022 11 27 10  04 35 57.533   +19 01 17.83  .33441 1.3198 173.9 20.9 .099  27
2022 11 27 11  04 35 59.188   +19 00 47.21  .33427 1.3197 173.9 20.9 .101  27
2022 11 27 12  04 36 00.842   +19 00 16.57  .33414 1.3196 173.9 20.9 .103  26
2022 11 27 13  04 36 02.497   +18 59 45.91  .33400 1.3194 174.0 20.9 .105  26
2022 11 27 14  04 36 04.151   +18 59 15.24  .33387 1.3193 174.0 20.9 .107  26
2022 11 27 15  04 36 05.806   +18 58 44.55  .33373 1.3192 174.0 20.9 .109  26
2022 11 27 16  04 36 07.460   +18 58 13.84  .33360 1.3190 174.0 20.9 .111  26
2022 11 27 17  04 36 09.115   +18 57 43.11  .33347 1.3189 174.1 20.9 .113  26
2022 11 27 18  04 36 10.769   +18 57 12.36  .33333 1.3188 174.1 20.9 .115  26
2022 11 27 19  04 36 12.423   +18 56 41.60  .33320 1.3187 174.1 20.9 .118  26
2022 11 27 20  04 36 14.078   +18 56 10.82  .33307 1.3185 174.2 20.9 .120  26
2022 11 27 21  04 36 15.732   +18 55 40.02  .33293 1.3184 174.2 20.9 .122  26
2022 11 27 22  04 36 17.386   +18 55 09.21  .33280 1.3183 174.2 20.9 .124  25
2022 11 27 23  04 36 19.041   +18 54 38.38  .33267 1.3181 174.2 20.9 .126  25
2022 11 28 00  04 36 20.695   +18 54 07.53  .33254 1.3180 174.3 20.8 .128  25
2022 11 28 01  04 36 22.349   +18 53 36.66  .33241 1.3179 174.3 20.8 .130  25
2022 11 28 02  04 36 24.004   +18 53 05.78  .33228 1.3178 174.3 20.8 .132  25
2022 11 28 03  04 36 25.658   +18 52 34.88  .33214 1.3176 174.3 20.8 .134  25
2022 11 28 04  04 36 27.313   +18 52 03.96  .33201 1.3175 174.4 20.8 .136  25
2022 11 28 05  04 36 28.967   +18 51 33.03  .33188 1.3174 174.4 20.8 .138  25
2022 11 28 06  04 36 30.622   +18 51 02.08  .33175 1.3173 174.4 20.8 .140  25
2022 11 28 07  04 36 32.277   +18 50 31.11  .33162 1.3171 174.4 20.8 .142  25
2022 11 28 08  04 36 33.932   +18 50 00.13  .33149 1.3170 174.5 20.8 .144  25
2022 11 28 09  04 36 35.586   +18 49 29.13  .33136 1.3169 174.5 20.8 .146  25
2022 11 28 10  04 36 37.241   +18 48 58.12  .33123 1.3167 174.5 20.8 .149  25
2022 11 28 11  04 36 38.896   +18 48 27.09  .33111 1.3166 174.5 20.8 .151  24
2022 11 28 12  04 36 40.552   +18 47 56.04  .33098 1.3165 174.6 20.8 .153  24
2022 11 28 13  04 36 42.207   +18 47 24.97  .33085 1.3164 174.6 20.8 .155  24
2022 11 28 14  04 36 43.862   +18 46 53.89  .33072 1.3162 174.6 20.8 .157  24
2022 11 28 15  04 36 45.518   +18 46 22.80  .33059 1.3161 174.6 20.8 .159  24
2022 11 28 16  04 36 47.173   +18 45 51.69  .33046 1.3160 174.7 20.8 .161  24
2022 11 28 17  04 36 48.829   +18 45 20.56  .33034 1.3159 174.7 20.8 .163  24
2022 11 28 18  04 36 50.485   +18 44 49.42  .33021 1.3157 174.7 20.8 .165  24
2022 11 28 19  04 36 52.141   +18 44 18.26  .33008 1.3156 174.7 20.8 .168  24
2022 11 28 20  04 36 53.797   +18 43 47.08  .32995 1.3155 174.7 20.8 .170  24
2022 11 28 21  04 36 55.454   +18 43 15.89  .32983 1.3154 174.8 20.8 .172  24
2022 11 28 22  04 36 57.110   +18 42 44.69  .32970 1.3152 174.8 20.8 .174  24
2022 11 28 23  04 36 58.767   +18 42 13.47  .32958 1.3151 174.8 20.8 .176  24
2022 11 29 00  04 37 00.424   +18 41 42.23  .32945 1.3150 174.8 20.8 .178  24